Terminal Aerodrome Forecast
Issued by NWS Wilmington, OH

Current Version | Previous Version | Graphics & Text | Print | Product List | Glossary On
Versions: 1 2 3 4 5 6 7 8 9 10 11 12 13 14 15 16 17 18 19 20 21 22 23 24 25 26 27 28
000
FTUS41 KILN 302136 AAA
TAFCVG
TAF AMD
KCVG 302136Z 3022/3124 32010G16KT P6SM FEW050
     FM302300 VRB04KT P6SM SKC
     FM311500 28007KT P6SM SKC
     FM311900 29009KT P6SM SCT050=

USA.gov is the U.S. government's official web portal to all federal, state and local government web resources and services.